APSTAR-7

Last updated on Mon Oct 14 2024 00:02:39 GMT+0000 (Coordinated Universal Time)

1 38107U 12013A 24287.56404569 -.00000104 00000+0 00000+0 0 9992 2 38107 0.0347 93.0891 0002765 127.3796 81.7314 1.00271215 45675
UTC large
Height (km)
Speed (km/s)
/
Latitude / Longitude
Inclination (degrees)
Orbital Period (minutes)
Azimuth
Elevation
Range (km)
Doppler Factor

Next 0 passes for location: London (51.5072 / 0.1276)

Sorry there are no passes over London.